This is the latest recevied weather packets stored in our database for station/object F4ELU-13. If no packets are shown the sender has not sent any weather packets the latest 10 day(s).
| Time | Temp. | Humidity | Pressure | Rain* | Wind** | Luminosity | Snow |
|---|---|---|---|---|---|---|---|
| 1778206683 | 6.67° C | 99% | 1014 hPa | 0 mm | - | - | - |
| 1778206143 | 6.11° C | 99% | 1014 hPa | 0 mm | - | - | - |
| 1778205603 | 5.56° C | 99% | 1013.9 hPa | 0 mm | - | - | - |
| 1778205243 | 5.56° C | 99% | 1013.8 hPa | 0 mm | - | - | - |
| 1778204703 | 6.11° C | 99% | 1013.7 hPa | 0 mm | - | - | - |
| 1778204163 | 7.22° C | 99% | 1013.7 hPa | 0 mm | - | - | - |
| 1778203623 | 6.67° C | 99% | 1013.6 hPa | 0 mm | - | - | - |
| 1778203083 | 6.11° C | 99% | 1013.7 hPa | 0 mm | - | - | - |
| 1778202543 | 6.11° C | 99% | 1013.8 hPa | 0 mm | - | - | - |
| 1778202003 | 6.67° C | 99% | 1013.8 hPa | 0 mm | - | - | - |
| 1778201643 | 6.67° C | 99% | 1013.8 hPa | 0 mm | - | - | - |
| 1778201103 | 7.22° C | 98% | 1013.8 hPa | 0 mm | - | - | - |
| 1778200563 | 6.67° C | 98% | 1013.8 hPa | 0 mm | - | - | - |
| 1778200023 | 6.67° C | 97% | 1013.9 hPa | 0 mm | - | - | - |
| 1778199483 | 7.22° C | 97% | 1014.1 hPa | 0 mm | - | - | - |
| 1778198943 | 7.78° C | 96% | 1014.3 hPa | 0 mm | - | - | - |
| 1778198403 | 8.89° C | 94% | 1014.1 hPa | 0 mm | - | - | - |
| 1778198044 | 8.89° C | 94% | 1014.1 hPa | 0 mm | - | - | - |
| 1778197503 | 8.89° C | 94% | 1014 hPa | 0 mm | - | - | - |
| 1778196963 | 8.89° C | 94% | 1014.1 hPa | 0 mm | - | - | - |
| 1778196423 | 8.89° C | 94% | 1014.1 hPa | 0 mm | - | - | - |
| 1778195883 | 8.89° C | 93% | 1014.1 hPa | 0 mm | - | - | - |
| 1778195344 | 8.89° C | 93% | 1014.2 hPa | 0 mm | - | - | - |
| 1778194803 | 8.33° C | 94% | 1014.3 hPa | 0 mm | - | - | - |
| 1778194443 | 8.33° C | 94% | 1014.2 hPa | 0 mm | - | - | - |
* Rain latest hour (hover to see other rain measurements)
** Current wind speed in m/s (hover to see current wind gust speed)